FW2567 Weather Reports


time (UTC)temp
C
wind
direction
speed
KPH
gust
KPH
rain 1hr
cm
rain 24hr
cm
rain mn
cm
humidity
%
barometer
mb
20260502213108 23 350 3.2 9.7 0.00 0.00 0.00 46 1015.5
20260502211533 23 337 4.8 12.9 0.00 0.00 0.00 48 1015.7
20260502210030 22 294 4.8 11.3 0.00 0.00 0.00 51 1015.9
20260502204530 22 278 4.8 9.7 0.00 0.00 0.00 52 1016.0
20260502203031 22 300 6.4 11.3 0.00 0.00 0.00 51 1015.9
20260502201604 23 277 4.8 11.3 0.00 0.00 0.00 50 1016.0
20260502200029 23 120 3.2 9.7 0.00 0.00 0.00 49 1016.2
20260502194532 22 316 1.6 6.4 0.00 0.00 0.00 54 1016.4
20260502191606 18 46 1.6 9.7 0.00 0.00 0.00 66 1016.9
20260502190028 18 22 0.0 3.2 0.00 0.00 0.00 62 1017.2
20260502184532 19 22 0.0 3.2 0.00 0.00 0.00 61 1017.6
20260502183032 20 24 1.6 6.4 0.00 0.00 0.00 58 1017.6
20260502181531 21 316 1.6 6.4 0.00 0.00 0.00 57 1017.6
20260502163029 15 104 1.6 6.4 0.00 0.00 0.00 79 1017.3
20260502151530 12 157 0.0 0.0 0.00 0.00 0.00 91 1017.0
20260502140106 8 157 0.0 0.0 0.00 0.00 0.00 92 1016.4
20260502130106 8 170 1.6 6.4 0.00 0.00 0.00 90 1015.8
20260502123031 9 180 0.0 0.0 0.00 0.00 0.00 89 1016.0
20260502121527 10 180 0.0 0.0 0.00 0.00 0.00 88 1016.0
20260502114532 10 175 0.0 3.2 0.00 0.03 0.00 88 1016.3
20260502113031 10 159 3.2 6.4 0.00 0.03 0.00 88 1016.3
20260502111529 10 149 3.2 6.4 0.00 0.03 0.00 87 1016.3
20260502110106 11 188 0.0 6.4 0.00 0.03 0.00 87 1016.4
20260502103031 11 152 3.2 6.4 0.00 0.03 0.00 87 1016.7
20260502101530 11 121 1.6 4.8 0.00 0.03 0.00 88 1016.8
20260502091532 10 112 0.0 4.8 0.00 0.03 0.00 86 1017.0
20260502071531 11 156 4.8 8.0 0.00 0.03 0.00 83 1017.2
20260502070030 11 157 1.6 4.8 0.00 0.03 0.00 83 1017.2
20260502064536 12 189 1.6 4.8 0.00 0.03 0.03 82 1017.3
20260502063029 12 122 0.0 4.8 0.00 0.03 0.03 82 1017.3
20260502060032 12 169 1.6 6.4 0.00 0.03 0.03 79 1017.1
20260502054529 13 157 3.2 6.4 0.00 0.03 0.03 77 1017.1
20260502051533 13 141 3.2 6.4 0.00 0.03 0.03 74 1017.1
20260502050042 14 176 1.6 6.4 0.00 0.03 0.03 72 1016.9
20260502044531 15 67 1.6 9.7 0.00 0.03 0.03 70 1016.6
20260502043031 15 81 3.2 6.4 0.00 0.03 0.03 69 1016.5
20260502041531 16 88 3.2 6.4 0.00 0.03 0.03 67 1016.4
20260502040034 16 118 4.8 12.9 0.00 0.03 0.03 65 1016.0
20260502034539 17 272 3.2 8.0 0.00 0.03 0.03 63 1015.9
20260502033144 17 61 6.4 9.7 0.00 0.03 0.03 61 1016.0
20260502031533 18 42 1.6 8.0 0.00 0.03 0.03 58 1016.0
20260502024534 19 221 1.6 9.7 0.00 0.03 0.03 53 1015.4
20260502023029 20 261 3.2 12.9 0.00 0.03 0.03 50 1015.0
20260502021530 21 279 0.0 8.0 0.00 0.03 0.03 50 1014.8
20260502020030 22 250 1.6 4.8 0.00 0.03 0.03 47 1014.8
20260502013031 23 309 0.0 3.2 0.00 0.03 0.03 38 1014.8
20260502011529 24 308 1.6 6.4 0.00 0.03 0.03 35 1014.8
20260502010107 25 3 3.2 9.7 0.00 0.03 0.03 35 1014.7
20260502004534 25 322 1.6 6.4 0.00 0.03 0.03 33 1014.8
20260502003029 25 11 1.6 8.0 0.00 0.03 0.03 33 1015.0
20260502000033 24 8 1.6 8.0 0.00 0.03 0.03 37 1015.2
20260501234530 23 33 3.2 11.3 0.00 0.03 0.03 37 1015.4
20260501231606 25 3 3.2 11.3 0.00 0.03 0.03 35 1015.6
20260501230031 25 52 1.6 14.5 0.00 0.03 0.03 36 1015.8
20260501224529 25 48 4.8 14.5 0.00 0.03 0.03 36 1016.0
20260501223031 25 44 4.8 16.1 0.00 0.03 0.03 37 1016.2
20260501221529 25 44 6.4 14.5 0.00 0.03 0.03 38 1016.4
20260501220035 24 1 6.4 14.5 0.00 0.03 0.03 39 1016.6
20260501214531 23 12 3.2 12.9 0.00 0.03 0.03 40 1016.8